Location: Arbon
(43.0005°N, 0.7472°E)
Time: 05:31:30
(UTC+00:00)

Vanguard 2 Rocket - Pass Details

Date: 19 June 2021
Orbit: 554 x 3325 km, 32.9° (Epoch: 26 July)

Event Time Altitude Azimuth Distance (km) Brightness Sun altitude
Rises 19:44:28 0° 242° (WSW) 7,288 11.9 -1.6°
Reaches altitude 10° 19:49:35 10° 238° (WSW) 6,276 11.5 -2.4°
Maximum altitude 20:08:24 54° 169° (S) 3,236 9.4 -5.1°
Drops below altitude 10° 20:21:23 10° 98° (E) 4,485 9.9 -6.9°
Sets 20:24:21 0° 93° (E) 5,166 10.3 -7.3°
